Погода в Кочетовке

Россия / Тамбовская область     53°02′10″N   40°31′15″E
темп.,
°C
ветер,
м/с
пор.,
м/с
влажн.,
%
обл.,
%
осадки,
мм/ч
давл.,
гПа
погр.,
м
5 августа, чт
чт500:00+17ссз33665 0.0 101730
03:00+15с22725 0.0 101721
06:00+16ссв227060 0.0 101845
09:00+22вюв115098 0.0 1017494
12:00+26ююз23345 0.0 10172168
15:00+29зюз142766 0.0 10152799
18:00+26с1235100 0.0 1014652
21:00+22ю2346100 0.0 101450
6 августа, пт
пт600:00+20ю355795 0.0 1014101
03:00+20юв225551 0.0 101425
06:00+20юв3652100 0.0 1014183
09:00+26ю583390 0.0 1013745
12:00+31ю6825100 0.0 10122655
15:00+31ю782849 0.0 10112414
18:00+29юв61131100 0.0 1010751
21:00+27ююв71536100 0.0 1010528
7 августа, сб
сб700:00+25ююв71737100 0.0 1010615
03:00+23ююв6163796 0.0 1011523
06:00+22ююв5154088 0.0 1012462
09:00+27ю7102866 0.0 1012773
12:00+32ю6821100 0.0 10111878
15:00+30юв4625100 0.0 1011711
18:00+29юв4928100 0.0 1010489
21:00+26вюв6143561 0.0 1011362
8 августа, вс
вс800:00+25юв61532100 0.0 1011416
03:00+22ююв4113696 0.0 1012273
06:00+21ююв2839100 0.0 1012179
09:00+25зюз1234100 0.0 1013172
12:00+28всв1129100 0.0 1014680
15:00+30ююз6629100 0.0 10141720
18:00+27вюв2339100 0.0 101454
21:00+23ю3353100 0.1 101648
9 августа, пн
пн900:00+22юв225698 0.2 101618
03:00+21ююв22551 0.2 101620
06:00+20ююз23515 0.0 101657
09:00+27зюз223976 0.0 1017599
12:00+32зюз35286 0.0 10161888
15:00+33зсз452517 0.0 10162956
18:00+31ссз223184 0.0 1015310
21:00+27св493996 0.0 1017267